Regional Weather Roundup
Issued by NWS

Home | Current Version | Previous Version | Graphics & Text | Print | Product List | Glossary On
Versions: 1 2 3 4 5 6 7 8 9 10 11 12 13 14 15 16 17 18 19 20 21 22 23 24 25 26 27 28 29 30 31 32 33 34 35 36 37 38 39 40 41 42 43 44 45 46 47 48 49 50
000
ASUS43 KLSX 170259
RWRMO

WEATHER SUMMARY FOR MISSOURI
NATIONAL WEATHER SERVICE SPRINGFIELD MO
1000 PM CDT WED APR 16 2014

NOTE: "FAIR" INDICATES FEW OR NO CLOUDS BELOW 12,000 FEET WITH NO
       SIGNIFICANT WEATHER AND/OR OBSTRUCTIONS TO VISIBILITY.
       CURRENT SKY AND/OR WEATHER CONDITIONS ARE NOT AVAILABLE FOR
       CHILLICOTHE AND FARMINGTON.

MOZ001>031-035>038-043-044-053-054-170400-
...NORTHERN AND WESTERN MISSOURI...

CITY           SKY/WX    TMP DP  RH WIND       PRES   REMARKS
KANSAS CTY INT CLOUDY    55  36  48 NW9       29.99R
KANSAS C DTWN  PTCLDY    59  32  36 W9        29.97R
LEE`S SUMMIT   PTCLDY    56  32  40 S15       29.95R
ST JOSEPH      MOCLDY    48  33  56 NW15      30.03R
CHILLICOTHE      N/A     58  32  37 S12       29.95R
KIRKSVILLE     PTCLDY    51  31  46 S15       29.95R

$$
MOZ066>068-077>081-088>096-101>105-170400-
...SOUTHWEST MISSOURI...

CITY           SKY/WX    TMP DP  RH WIND       PRES   REMARKS
SPRINGFIELD    CLEAR     51  29  42 S12       30.06R
JOPLIN         CLEAR     53  31  42 S10       30.03R

$$
MOZ032>034-039>042-045>050-055>058-069>072-170400-
...CENTRAL MISSOURI...

CITY           SKY/WX    TMP DP  RH WIND       PRES   REMARKS
COLUMBIA       CLEAR     51  28  41 S15       30.03R
JEFFERSON CITY CLEAR     50  29  44 SE10      30.05R
ROLLA          CLEAR     47  28  47 S13       30.08R
SEDALIA        CLEAR     54  31  41 S14       30.00R
OSAGE BEACH    CLEAR     52  27  37 S8        30.07R

$$
MOZ051-052-059>065-170400-
...EAST CENTRAL MISSOURI...

CITY           SKY/WX    TMP DP  RH WIND       PRES   REMARKS
ST LOUIS INTL  PTCLDY    51  26  37 S9        30.14R
SPIRIT OF STL  CLEAR     50  24  36 S5        30.12R
ST CHARLES     PTCLDY    47  30  51 SE10      30.12R

$$
MOZ072>076-082>087-097>100-106>115-170400-
...SOUTH CENTRAL AND SOUTHEAST MISSOURI...

CITY           SKY/WX    TMP DP  RH WIND       PRES   REMARKS
CAPE GIRARDEAU CLEAR     45  36  70 CALM      30.15R
FARMINGTON     CLEAR     45  28  53 S8        30.13R
POPLAR BLUFF   PTCLDY    48  34  58 SE3       30.13S
WEST PLAINS    PTCLDY    46  28  49 S5        30.11R

$$



USA.gov is the U.S. government's official web portal to all federal, state and local government web resources and services.